"Pseudo-MPEC" for P113jPL

Created 2020 Aug 6 7:07:10 UT using Find_Orb

Click here for an explanation of pseudo-MPECs

 
 Astrometry: 
     P113jPL  C2020 07 29@eAstrometry?SG%Np4U#fejDPH]yd8#\AMJD?#dh^S6=(,Q7crTF51
     P113jPL  C2020 07 29p,VSJUcX^_J]%M!%;_redacted;X+V:l.QclickU-cv9?)dO!'aUF51
     P113jPL  C2020 07 29?GY`X_Vq=aN2hereS\=cKldFu(OQc6,)]f_cL=(5tD=,QyInoNuaF51
     P113jPL  C2020 07 299A6uJg_`NforBxn[;@S#B8!_DR8GGexplanation-vBHi=8gZW'.F51

Station data:
(F51) Pan-STARRS 1, Haleakala  (N20.707235 W156.255910)  US/Hawaii.
   Observers N. Primak, A. Schultz, S. Watters, J. Thiel, T. Goggia. Measurer
   PS1 Science Consortium. 1.8-m Ritchey-Chrétien + CCD.

Orbital elements:  P113jPL
   Perihelion 2020 Jul 16.065788 +/- 49.3 TT =  1:34:44 (JD 2459046.565788)
Epoch 2020 Jul 30.0 TT = JDT 2459060.5   Earth MOID: 0.4071   Ma: 0.0378
M   3.59642617 +/- 17               (J2000 ecliptic)          AutoNEOCP
n   0.25810043 +/- 0.239            Peri.  184.21874 +/- 60
a   2.44311302 +/- 1.5              Node   114.90692 +/- 43
e   0.4174800 +/- 0.247             Incl.    3.96986 +/- 2.4
P   3.82                   H 22.9   G  0.15   U 11.8  SR
q 1.42316216 +/- 0.408    Q 3.46306387 +/- 77.9
From 4 observations 2020 July 29 (41.9 min); mean residual 0".08
Residuals in arcseconds: 
200729 F51  .01+  .10+    200729 F51  .06-  .06+    
200729 F51  .02+  .19-    200729 F51  .03+  .03+    

Ephemerides (geocentric):
Date (UTC) HH   RA              Dec         delta   r     elong  mag " sig PA
---- -- -- --  -------------   -----------  ------ ------ -----  --- ---- ---
2020 08 06 07  21 06 30.024   -21 07 12.51  .42347 1.4368 175.5 22.1  40d 172
2020 08 06 08  21 06 30.509   -21 07 32.20  .42354 1.4368 175.5 22.1  40d 172
2020 08 06 09  21 06 30.994   -21 07 51.88  .42361 1.4369 175.5 22.1  40d 172
2020 08 06 10  21 06 31.479   -21 08 11.53  .42367 1.4369 175.5 22.1  40d 172
2020 08 06 11  21 06 31.963   -21 08 31.17  .42374 1.4370 175.4 22.1  40d 172
2020 08 06 12  21 06 32.448   -21 08 50.79  .42381 1.4370 175.4 22.1  40d 172
2020 08 06 13  21 06 32.932   -21 09 10.39  .42387 1.4371 175.4 22.1  40d 172
2020 08 06 14  21 06 33.416   -21 09 29.97  .42394 1.4372 175.4 22.1  40d 172
2020 08 06 15  21 06 33.900   -21 09 49.54  .42401 1.4372 175.4 22.1  40d 172
2020 08 06 16  21 06 34.383   -21 10 09.08  .42408 1.4373 175.3 22.1  40d 172
2020 08 06 17  21 06 34.867   -21 10 28.60  .42414 1.4373 175.3 22.1  40d 172
2020 08 06 18  21 06 35.350   -21 10 48.11  .42421 1.4374 175.3 22.1  40d 172
2020 08 06 19  21 06 35.834   -21 11 07.60  .42428 1.4374 175.3 22.1  40d 172
2020 08 06 20  21 06 36.317   -21 11 27.07  .42435 1.4375 175.3 22.1  40d 172
2020 08 06 21  21 06 36.800   -21 11 46.52  .42442 1.4375 175.3 22.1  40d 172
2020 08 06 22  21 06 37.283   -21 12 05.95  .42449 1.4376 175.2 22.1  40d 171
2020 08 06 23  21 06 37.766   -21 12 25.36  .42456 1.4376 175.2 22.1  40d 171
2020 08 07 00  21 06 38.249   -21 12 44.75  .42463 1.4377 175.2 22.1  40d 171
2020 08 07 01  21 06 38.731   -21 13 04.12  .42470 1.4378 175.2 22.1  40d 171
2020 08 07 02  21 06 39.214   -21 13 23.47  .42477 1.4378 175.2 22.1  40d 171
2020 08 07 03  21 06 39.696   -21 13 42.80  .42484 1.4379 175.1 22.1  40d 171
2020 08 07 04  21 06 40.179   -21 14 02.12  .42491 1.4379 175.1 22.1  40d 171
2020 08 07 05  21 06 40.661   -21 14 21.41  .42498 1.4380 175.1 22.1  40d 171
2020 08 07 06  21 06 41.144   -21 14 40.69  .42505 1.4380 175.1 22.1  40d 171
2020 08 07 07  21 06 41.626   -21 14 59.94  .42512 1.4381 175.0 22.1  40d 171
2020 08 07 08  21 06 42.108   -21 15 19.17  .42519 1.4381 175.0 22.2  40d 171
2020 08 07 09  21 06 42.590   -21 15 38.39  .42527 1.4382 175.0 22.2  40d 171
2020 08 07 10  21 06 43.072   -21 15 57.58  .42534 1.4383 175.0 22.2  40d 171
2020 08 07 11  21 06 43.554   -21 16 16.76  .42541 1.4383 175.0 22.2  40d 171
2020 08 07 12  21 06 44.036   -21 16 35.91  .42548 1.4384 174.9 22.2  40d 171
2020 08 07 13  21 06 44.519   -21 16 55.05  .42556 1.4384 174.9 22.2  40d 171
2020 08 07 14  21 06 45.001   -21 17 14.16  .42563 1.4385 174.9 22.2  41d 171
2020 08 07 15  21 06 45.483   -21 17 33.26  .42570 1.4385 174.9 22.2  41d 172
2020 08 07 16  21 06 45.965   -21 17 52.33  .42578 1.4386 174.8 22.2  41d 172
2020 08 07 17  21 06 46.447   -21 18 11.38  .42585 1.4386 174.8 22.2  41d 172
2020 08 07 18  21 06 46.929   -21 18 30.42  .42593 1.4387 174.8 22.2  41d 172
2020 08 07 19  21 06 47.411   -21 18 49.43  .42600 1.4388 174.8 22.2  41d 172
2020 08 07 20  21 06 47.893   -21 19 08.42  .42607 1.4388 174.7 22.2  41d 172
2020 08 07 21  21 06 48.375   -21 19 27.39  .42615 1.4389 174.7 22.2  41d 172
2020 08 07 22  21 06 48.857   -21 19 46.34  .42623 1.4389 174.7 22.2  41d 172
2020 08 07 23  21 06 49.339   -21 20 05.28  .42630 1.4390 174.7 22.2  42d 172
2020 08 08 00  21 06 49.822   -21 20 24.19  .42638 1.4390 174.6 22.2  42d 172
2020 08 08 01  21 06 50.304   -21 20 43.07  .42645 1.4391 174.6 22.2  42d 172
2020 08 08 02  21 06 50.786   -21 21 01.94  .42653 1.4392 174.6 22.2  42d 172
2020 08 08 03  21 06 51.269   -21 21 20.79  .42661 1.4392 174.6 22.2  42d 172
2020 08 08 04  21 06 51.751   -21 21 39.62  .42668 1.4393 174.5 22.2  42d 172
2020 08 08 05  21 06 52.234   -21 21 58.42  .42676 1.4393 174.5 22.2  42d 172
2020 08 08 06  21 06 52.717   -21 22 17.20  .42684 1.4394 174.5 22.2  43d 172